Location: Arroyo de San Miguel
(40.9167°N, 4.6667°W)
Time: 14:30:04
(UTC+00:00)

Cosmos 1812 Rocket - Pass Details

Date: 19 May 2025
Orbit: 601 x 624 km, 82.5° (Epoch: 17 June)

Event Time Altitude Azimuth Distance (km) Brightness Sun altitude
Exits shadow 22:25:57 37° 243° (WSW) 949 4.4 -24.0°
Maximum altitude 22:27:00 44° 281° (WNW) 836 4.4 -24.1°
Drops below altitude 10° 22:31:08 10° 355° (N) 1,953 7.0 -24.5°
Sets 22:33:27 0° 2° (N) 2,863 8.0 -24.7°
